sat.trackr.live / text

‹ back to catalog

STARLINK-35205

NORAD 65679 · 2025-212D

PAYLOAD ACTIVE UNKNOWN

§ Identity

Operator
Country
US
Launch date
2025-09-21
Launch site
AFETR
Launch vehicle
Mass (kg)
RCS (m²)

Purposes: comms

External: N2YO · Heavens-Above · Gunter

§ Orbital elements

Epoch: 2026-05-24T23:58:07.186656Z

Period
94.10 min
Inclination
53.1591°
Eccentricity
0.0000886
Mean motion
15.30206668 rev/d
Perigee alt
474.6 km
Apogee alt
475.8 km
Semi-major
6,853.3 km
B*
8.5042e-4
RAAN
351.4516°
Arg perigee
86.3856°
Mean anomaly
273.7246°
Rev number
3,887

§ Raw data

STARLINK-352051 65679U 25212D   26144.99869429  .00024917  00000+0  85042-3 0  99922 65679  53.1591 351.4516 0000886  86.3856 273.7246 15.30206668 38876

JSON: /api/v1/satellites/65679 · /tle

For live sub-satellite position, see the globe view (requires WebGL).

§ Visibility from observer

Set your observer location to see the next 7 days of passes ≥ 10°. The values pass through the URL so the page stays shareable.

No JS? Fill the form by hand. The geolocation button needs JavaScript.